Cloud_Cover
100 100 100 100 54 86 100 100 5 17 96 83 88 81 100 100 100 100 100 56 51 100 99 99 54 7 14 44 28 40 36 100 99 99 100 100 100 100 100 100 100 84 100
100 100 100 100 97 5 5 91 97 5 21 92 98 31 100 100 100 100 82 94 100 88 77 53 96 100 19 5 5 5 5 6 52 5 59 100 100 100 100 100 100 100 69
100 100 100 100 71 100 7 5 100 100 86 52 79 100 100 100 100 97 36 100 100 85 10 46 98 100 67 1 0 0 0 4 3 5 7 14 99 100 100 100 99 100 10
100 100 100 92 100 100 61 89 49 100 100 100 80 13 66 94 100 74 9 76 85 100 98 100 100 100 73 45 2 0 0 0 2 4 3 5 5 6 24 76 9 21 13
100 100 12 30 13 87 100 96 100 100 100 100 100 93 79 8 5 5 9 71 27 39 100 84 5 5 4 47 2 0 0 0 0 0 0 0 0 1 1 5 8 4 5
77 100 7 36 5 30 100 88 100 100 96 15 42 100 93 6 5 5 5 4 35 24 72 97 4 5 5 5 0 0 0 0 1 2 0 0 0 0 0 0 0 0 0
100 13 100 41 65 40 5 33 80 98 28 71 36 87 33 22 5 5 5 11 8 5 5 9 20 5 85 36 5 3 0 5 2 37 43 37 73 7 0 0 0 0 0
39 5 34 100 37 38 53 5 7 39 5 5 90 100 66 9 90 64 3 0 0 3 18 6 5 14 72 5 11 5 0 2 0 6 17 33 49 40 5 0 0 0 0
100 98 3 11 10 5 12 10 24 64 90 82 98 10 5 15 100 76 47 72 5 5 1 0 0 0 0 0 0 5 5 1 0 0 0 4 0 0 0 16 20 14 3
59 95 60 93 5 46 41 7 0 0 0 0 0 2 7 35 100 100 41 18 81 11 5 0 0 0 0 0 0 0 5 5 0 0 23 24 5 5 2 0 5 20 23
5 20 85 99 57 5 97 91 100 17 8 6 0 0 0 7 62 39 9 16 2 4 0 0 4 0 0 3 94 1 4 3 2 2 5 5 0 0 0 0 6 17 13
0 2 5 5 100 86 34 91 100 100 100 100 100 95 16 59 20 4 0 0 3 5 5 5 3 0 0 1 64 2 5 6 11 85 100 83 32 24 3 0 7 0 4
0 0 0 5 5 6 4 99 100 100 100 100 100 100 100 100 99 76 10 62 2 45 7 2 0 0 0 0 1 5 5 39 84 61 96 99 82 42 70 88 14 0 1
0 0 0 0 5 33 23 76 100 100 100 100 100 100 100 100 100 100 100 100 100 100 100 5 5 0 0 12 3 5 38 85 100 100 100 100 100 99 100 30 32 13 0
2 0 0 0 0 42 100 100 100 100 100 100 100 100 100 100 100 100 100 100 100 20 50 28 66 2 0 0 2 5 18 94 100 100 100 100 100 90 90 100 93 21 18
5 4 0 0 0 4 100 94 100 100 100 100 100 100 100 100 100 100 100 100 100 99 23 48 64 11 4 3 5 70 66 10 96 100 100 96 84 100 74 67 69 25 38
0 5 1 0 0 0 50 49 99 100 100 100 100 100 100 100 100 100 100 100 100 100 90 100 69 26 5 5 6 11 5 5 5 6 10 78 88 100 90 44 29 74 20
0 0 1 0 0 0 22 27 18 96 100 100 100 100 100 100 100 100 100 100 100 100 99 59 24 5 1 5 32 54 6 5 5 5 1 22 78 74 8 82 51 84 67
0 0 0 0 0 0 0 0 8 6 100 100 100 100 100 100 100 100 100 100 100 100 20 6 5 5 4 4 5 5 62 5 5 5 3 92 78 34 93 61 47 100 43
0 0 0 0 0 0 0 0 71 10 2 99 100 100 100 100 100 100 100 100 100 100 80 18 77 6 5 5 94 100 85 41 5 5 7 100 83 100 96 39 93 90 74
0 0 0 0 0 0 22 100 66 100 100 15 85 100 100 100 100 100 100 99 100 100 82 5 13 82 100 81 100 100 95 50 85 99 46 100 100 100 100 62 85 44 15
0 0 0 43 38 0 1 100 100 46 16 0 0 13 100 100 100 100 100 100 99 96 89 100 100 100 96 42 18 62 54 44 94 100 100 100 100 100 99 100 37 40 77
0 6 22 100 100 99 72 8 0 0 7 0 0 97 76 100 100 100 100 100 100 100 98 99 100 100 100 100 98 100 100 97 100 100 100 89 100 100 94 100 71 100 59
0 0 0 19 64 30 40 74 79 46 1 0 0 99 100 100 45 99 100 100 100 100 100 100 100 100 100 100 87 85 100 100 100 100 100 100 100 100 100 100 98 38 75
0 2 4 0 99 100 90 8 28 15 12 4 0 7 40 53 62 100 21 92 100 100 100 100 100 100 100 100 100 100 83 100 100 100 100 100 100 92 100 92 26 33 88
4 24 58 59 43 50 99 97 14 7 89 98 7 14 29 1 53 100 100 96 78 99 100 100 100 100 100 89 100 100 100 100 100 100 100 100 99 95 93 100 95 100 100